{"data":{"norad_id":69716,"epoch":"2026-09-19T01:30:21.414240Z","epoch_age_seconds":145699,"freshness":"FRESH","line1":"1 69716U 26147N   26262.06274785  .00012350  00000+0  38424-3 0  9990","line2":"2 69716  97.2848 298.4458 0000895 122.0620 238.0710 15.33446514 14017","mean_motion":15.33446514,"eccentricity":8.95e-5,"inclination_deg":97.2848,"raan_deg":298.4458,"arg_perigee_deg":122.062,"mean_anomaly_deg":238.071,"bstar":0.00038424,"rev_number":1401,"period_min":93.906111941509,"perigee_km":464.92616091057,"apogee_km":466.15117885548,"semimajor_km":6843.675669883,"source":"CELESTRAK","updated_at":"2026-09-20T09:00:44.283263Z"}}